Volver al catálogo

STARLINK-36183

ActivoComunicacionesVLEO
NORAD 67173·PAYLOAD·🇺🇸 United States

Lanzado Dec 17, 2025 desde Cape Canaveral Space Force Station

Loading…

Próximos Pases (próximas 24 horas)

TLE

ActualizadoSource: CelesTrak SupGP

Época: Sep 14, 2026, 23:20 UTC

1 67173C 25303L   26257.97270833  .00001923  00000+0  69635-4 0  2572
2 67173  43.0013 321.9549 0001495 265.8547   4.4943 15.27577107    13

Sigue STARLINK-36183 en tiempo real con AllMySat

Download on the App Store